| time (UTC) | temp F | wind direction | speed knots | gust knots | rain 1hr in | rain 24hr in | rain mn in | humidity % | barometer mb |
| 20260503213047 | 70 | 254 | 3.5 | 13.0 | 0.00 | 0.00 | 0.00 | 45 | 1003.8 |
| 20260503211534 | 70 | 310 | 5.2 | 9.6 | 0.00 | 0.00 | 0.00 | 44 | 1003.9 |
| 20260503210011 | 71 | 277 | 2.6 | 7.8 | 0.00 | 0.00 | 0.00 | 48 | 1004.0 |
| 20260503204612 | 70 | 266 | 4.3 | 7.8 | 0.00 | 0.00 | 0.00 | 48 | 1004.2 |
| 20260503203115 | 70 | 224 | 1.7 | 10.4 | 0.00 | 0.00 | 0.00 | 50 | 1004.1 |
| 20260503201550 | 69 | 218 | 3.5 | 7.8 | 0.00 | 0.00 | 0.00 | 48 | 1004.3 |
| 20260503200038 | 68 | 305 | 1.7 | 8.7 | 0.00 | 0.00 | 0.00 | 50 | 1004.4 |
| 20260503194517 | 69 | 315 | 3.5 | 8.7 | 0.00 | 0.00 | 0.00 | 50 | 1004.6 |
| 20260503193005 | 68 | 277 | 2.6 | 7.0 | 0.00 | 0.00 | 0.00 | 51 | 1004.8 |
| 20260503191604 | 68 | 215 | 3.5 | 9.6 | 0.00 | 0.00 | 0.00 | 50 | 1004.9 |
| 20260503190053 | 67 | 288 | 4.3 | 9.6 | 0.00 | 0.00 | 0.00 | 51 | 1005.0 |
| 20260503184557 | 67 | 255 | 4.3 | 8.7 | 0.00 | 0.00 | 0.00 | 50 | 1005.1 |
| 20260503183014 | 67 | 293 | 2.6 | 14.8 | 0.00 | 0.00 | 0.00 | 52 | 1005.2 |
| 20260503181504 | 66 | 267 | 1.7 | 11.3 | 0.00 | 0.00 | 0.00 | 53 | 1005.5 |
| 20260503180104 | 66 | 285 | 4.3 | 10.4 | 0.00 | 0.00 | 0.00 | 51 | 1005.7 |
| 20260503174552 | 65 | 231 | 4.3 | 10.4 | 0.00 | 0.00 | 0.00 | 52 | 1005.9 |
| 20260503173034 | 65 | 217 | 3.5 | 12.2 | 0.00 | 0.00 | 0.00 | 50 | 1005.9 |
| 20260503171519 | 65 | 247 | 4.3 | 13.0 | 0.00 | 0.00 | 0.00 | 51 | 1006.1 |
| 20260503140103 | 59 | 142 | 5.2 | 17.4 | 0.00 | 0.00 | 0.00 | 62 | 1007.8 |
| 20260503100109 | 51 | 166 | 2.6 | 6.1 | 0.00 | 0.00 | 0.00 | 59 | 1009.7 |
| 20260503081552 | 51 | 193 | 0.0 | 5.2 | 0.00 | 0.00 | 0.00 | 59 | 1010.6 |
| 20260503071613 | 50 | 227 | 0.9 | 5.2 | 0.00 | 0.00 | 0.00 | 57 | 1011.0 |
| 20260503054609 | 50 | 208 | 0.0 | 3.5 | 0.00 | 0.00 | 0.00 | 58 | 1012.0 |
| 20260503053053 | 51 | 188 | 0.9 | 4.3 | 0.00 | 0.00 | 0.00 | 57 | 1012.1 |
| 20260503051542 | 51 | 210 | 1.7 | 6.1 | 0.00 | 0.00 | 0.00 | 56 | 1012.1 |
| 20260503050030 | 52 | 205 | 1.7 | 8.7 | 0.00 | 0.00 | 0.00 | 55 | 1012.2 |
| 20260503044540 | 52 | 219 | 3.5 | 7.8 | 0.00 | 0.00 | 0.00 | 55 | 1012.3 |
| 20260503043108 | 53 | 204 | 2.6 | 9.6 | 0.00 | 0.00 | 0.00 | 54 | 1012.3 |
| 20260503041601 | 53 | 210 | 1.7 | 7.8 | 0.00 | 0.00 | 0.00 | 54 | 1012.6 |
| 20260503040045 | 53 | 180 | 2.6 | 5.2 | 0.00 | 0.00 | 0.00 | 55 | 1012.7 |
| 20260503034532 | 52 | 209 | 0.9 | 3.5 | 0.00 | 0.00 | 0.00 | 56 | 1013.0 |
| 20260503033021 | 52 | 175 | 0.0 | 1.7 | 0.00 | 0.00 | 0.00 | 57 | 1013.1 |
| 20260503031614 | 52 | 208 | 0.9 | 2.6 | 0.00 | 0.00 | 0.00 | 58 | 1013.4 |
| 20260503024547 | 51 | 146 | 0.0 | 1.7 | 0.00 | 0.00 | 0.00 | 62 | 1013.6 |
| 20260503023035 | 50 | 153 | 0.0 | 0.9 | 0.00 | 0.00 | 0.00 | 65 | 1013.6 |
| 20260503021524 | 50 | 151 | 0.0 | 0.9 | 0.00 | 0.00 | 0.00 | 62 | 1013.6 |
| 20260503020008 | 51 | 187 | 0.0 | 0.9 | 0.00 | 0.00 | 0.00 | 62 | 1013.6 |
| 20260503014609 | 51 | 217 | 0.0 | 0.9 | 0.00 | 0.00 | 0.00 | 58 | 1013.7 |
| 20260503013102 | 52 | 217 | 0.0 | 0.0 | 0.00 | 0.00 | 0.00 | 55 | 1013.6 |
| 20260503011619 | 54 | 217 | 0.0 | 0.0 | 0.00 | 0.00 | 0.00 | 50 | 1013.6 |
| 20260503010055 | 55 | 217 | 0.0 | 0.9 | 0.00 | 0.00 | 0.00 | 50 | 1013.7 |
| 20260503004546 | 56 | 257 | 0.0 | 1.7 | 0.00 | 0.00 | 0.00 | 49 | 1013.7 |
| 20260503003030 | 57 | 254 | 1.7 | 7.8 | 0.00 | 0.00 | 0.00 | 46 | 1013.7 |
| 20260503001509 | 58 | 251 | 2.6 | 6.1 | 0.00 | 0.00 | 0.00 | 45 | 1013.9 |
| 20260503000123 | 60 | 294 | 1.7 | 7.0 | 0.00 | 0.00 | 0.00 | 43 | 1013.9 |
| 20260502234605 | 60 | 286 | 2.6 | 6.1 | 0.00 | 0.00 | 0.00 | 41 | 1013.8 |
| 20260502233048 | 60 | 243 | 2.6 | 9.6 | 0.00 | 0.00 | 0.00 | 38 | 1014.0 |
| 20260502231539 | 60 | 267 | 2.6 | 9.6 | 0.00 | 0.00 | 0.00 | 39 | 1014.1 |
| 20260502230027 | 60 | 308 | 2.6 | 9.6 | 0.00 | 0.00 | 0.00 | 40 | 1014.4 |
| 20260502224519 | 60 | 294 | 1.7 | 9.6 | 0.00 | 0.00 | 0.00 | 42 | 1014.7 |
| 20260502223107 | 60 | 262 | 3.5 | 9.6 | 0.00 | 0.00 | 0.00 | 40 | 1014.7 |
| 20260502221613 | 60 | 261 | 4.3 | 11.3 | 0.00 | 0.00 | 0.00 | 40 | 1014.8 |
| 20260502220056 | 60 | 288 | 3.5 | 8.7 | 0.00 | 0.00 | 0.00 | 41 | 1014.8 |
| 20260502214537 | 60 | 294 | 3.5 | 8.7 | 0.00 | 0.00 | 0.00 | 39 | 1015.0 |